Location: *
(43.9905°S, 176.4941°W)
Time: 02:20:36
(UTC+00:00)

IGS 5A - Pass Details

Date: 08 December 2019
Orbit: 583 x 589 km, 97.6° (Epoch: 27 September)

Event Time Altitude Azimuth Distance (km) Brightness Sun altitude
Rises 10:30:01 0° 174° (S) 2,854 8.1 -21.5°
Reaches altitude 10° 10:32:15 10° 179° (S) 1,945 7.1 -21.6°
Maximum altitude 10:36:17 46° 252° (WSW) 807 4.3 -21.8°
Enters shadow 10:37:40 33° 301° (WNW) 1,009 4.5 -21.9°
